STARLINK-31153, 59044

Orbit data source: Space-Track

STARLINK-31153, 59044 is a payload satellite owned by SpaceX/Seattle (US) in LEO that was launched on Sun, 25 Feb 2024 UTC via an FALCON 9 launch vehicle from the Air Force Eastern Test Range (AFETR). Payload-class satellites include a variety of spacecraft equipped with specific instruments for various scientific and technological missions. These include communications satellites like Starlink; space stations such as the ISS; scientific satellites like the Hubble; Earth observation satellites from companies like Planet Labs, Umbra, and HawkEye 360; GPS; miniature CubeSats for education and research; and military/defense satellites.

Loading next visibility...
Identifier
59044, 2024-038X
Orbit
LEO
Country
Flag of USUS
Related business
Manufacturer
SpaceX/Seattle
Mission
Operational Commercial Communications
Bus & Motor
STARLINK V2M, Unknown motor
Mass
730 kg wet, ~700 kg dry
Launch date (UTC)
2024-02-25 (2 years ago)
Launch vehicle
FALCON 9
Launch site
Air Force Eastern Test Range (AFETR)
Object type
Payload
Rocket body
Debris
Shape & HBR
Box + 2 Pan, 17.7 m
Radar Cross Section
33.884 m², Large (>1 m²)

Expand to show TLE details & history
Last TLE update: 2 days ago

TLE from 2 days ago
0 STARLINK-31153
1 59044U 24038X   26171.04670762  .00001144  00000-0  51094-4 0  9991
2 59044  43.0026 165.3992 0001726 274.6720  85.3935 15.27578527130341
Epoch: 2026-06-20T01:07Z
TLE epoch observation values (Epoch: 2026-06-20T01:07:15.538Z)
Latitude
0.00002°
Longitude
-119.68247°
Altitude
482.734 km
Speed
7.626 km/s
True Right ascension
11h 01m 35s
True Declination
0° 00' 00"
Sunlit
Object was in daylight at epoch
Visualization orbit readout
Latitude
Unknown
Longitude
Unknown
Altitude
Unknown
Speed
Unknown
Apparent Right ascension
Unknown
Apparent Declination
Unknown
Sunlit
N/A
Visualization observer readout
Local Sidereal Time
23:20:34
Azimuth
Unknown
Elevation
Unknown
Doppler factor
Unknown
Orbital elements
Apogee altitude
486.183 km
Perigee altitude
483.814 km
Semi-major axis
6,863.135 km
Eccentricity
0.00017
Inclination
43.0026°
RAAN
165.3992°
Arg. of periapsis
274.672°
True anomaly
85.41321°
Mean anomaly
85.3935°
Eccentric anomaly
85.40336°
Mean motion
3.81733 °/min
Orbital period
94.31 mins
BSTAR
0.000051094
Loading maneuver chart data...
Computing Atmospheric mass density...
Loading historical data...
Loading historical data...
Loading historical data...
Loading historical data...
Loading historical data...
Loading historical data...
Loading historical data...

Documentation

Showing up to 5 results
|